Date,TemperatureHighF,TemperatureAvgF,TemperatureLowF,DewpointHighF,DewpointAvgF,DewpointLowF,HumidityHigh,HumidityAvg,HumidityLow,PressureMaxIn,PressureMinIn,WindSpeedMaxMPH,WindSpeedAvgMPH,GustSpeedMaxMPH,PrecipitationSumIn
2013-1-1,36,28,18,23,17,9,74,64,52,30.20,30.02,31,11,36,0.00
2013-1-2,36,28,16,16,12,4,64,51,41,30.29,30.17,22,9,27,0.00
2013-1-3,36,28,14,17,11,2,67,49,36,30.29,30.05,23,12,27,0.00
2013-1-4,44,33,24,24,16,8,66,49,34,30.09,29.99,21,8,24,0.00
2013-1-5,42,34,24,23,18,14,66,54,45,30.23,30.03,24,9,28,0.00
2013-1-6,44,36,28,24,16,12,69,45,32,30.03,29.78,22,9,25,0.00
2013-1-7,46,36,28,25,21,18,70,55,41,29.87,29.55,25,5,34,0.00
2013-1-8,50,42,31,26,20,13,63,43,25,29.96,29.58,29,9,36,0.00
2013-1-9,55,46,33,26,24,20,62,43,30,29.93,29.60,27,12,30,0.00
2013-1-10,50,38,23,29,22,13,78,55,38,29.63,29.40,23,10,24,0.00
2013-1-11,23,15,10,15,7,2,78,71,62,30.08,29.63,16,6,18,0.00
2013-1-12,21,12,4,9,4,-3,78,70,59,30.11,30.02,14,5,16,0.00
2013-1-13,26,15,7,12,4,-2,72,62,46,30.16,30.07,22,8,23,0.00
2013-1-14,20,16,11,10,5,1,70,62,53,30.13,29.95,23,12,24,0.00
2013-1-15,40,30,20,24,18,10,74,63,49,30.07,29.95,35,19,45,0.00
2013-1-16,51,40,30,26,21,17,62,46,33,30.27,30.01,33,13,37,0.00
2013-1-17,47,37,26,24,19,16,65,50,38,30.30,29.95,22,11,26,0.00
2013-1-18,58,45,35,22,18,14,52,37,18,29.98,29.79,33,8,38,0.00
2013-1-19,47,37,26,26,20,14,82,54,30,30.20,29.96,19,6,22,0.00
2013-1-20,44,28,19,21,16,11,75,65,34,30.41,30.04,27,7,32,0.00
2013-1-21,38,25,16,20,15,10,78,67,50,30.25,29.95,15,2,16,0.00
2013-1-22,50,34,23,22,17,13,69,50,30,30.02,29.94,16,4,17,0.00
2013-1-23,36,27,22,19,16,14,77,64,44,30.16,29.85,14,4,15,0.00
2013-1-24,57,43,22,27,21,14,75,44,30,30.05,29.76,33,7,37,0.00
2013-1-25,54,40,24,28,23,16,77,54,36,30.04,29.85,17,5,21,0.00
2013-1-26,58,46,36,29,26,23,64,47,31,29.86,29.60,16,6,19,0.00
2013-1-27,40,36,31,31,28,23,86,76,62,29.77,29.61,17,3,19,0.00
2013-1-28,41,32,27,27,19,10,87,62,31,29.78,29.65,20,5,22,0.00
2013-1-29,31,24,11,21,12,2,70,59,45,30.14,29.63,20,7,24,0.00
2013-1-30,34,27,14,27,18,5,84,71,59,29.98,29.74,18,7,20,0.00
2013-1-31,32,22,7,25,14,0,83,73,51,30.20,29.95,17,8,19,0.00
2013-2-1,50,40,31,33,26,22,75,60,38,30.16,29.92,26,9,33,0.00
2013-2-2,52,40,30,28,22,20,67,51,33,30.25,30.11,25,9,28,0.00
2013-2-3,56,42,34,25,21,17,62,45,22,30.11,29.83,23,10,25,0.00
2013-2-4,55,43,32,26,23,20,67,47,27,29.86,29.70,31,10,38,0.00
2013-2-5,54,42,32,28,25,22,72,52,36,29.89,29.66,19,6,22,0.00
2013-2-6,53,41,30,25,20,15,71,44,24,30.01,29.66,24,7,29,0.00
2013-2-7,51,36,24,26,19,15,75,52,33,30.04,29.83,17,4,18,0.00
2013-2-8,47,36,26,24,20,15,68,54,33,29.88,29.78,10,2,10,0.00
2013-2-9,46,35,22,28,23,15,81,64,44,29.84,29.68,16,3,18,0.00
2013-2-10,34,28,17,27,19,10,82,68,50,30.10,29.84,24,7,29,0.00
2013-2-11,34,25,13,19,13,6,80,63,50,30.08,29.87,27,12,29,0.00
2013-2-12,48,33,25,23,16,12,59,50,36,30.01,29.80,21,10,24,0.00
2013-2-13,52,38,31,32,23,16,85,57,31,30.10,29.77,38,10,40,0.00
2013-2-14,39,32,28,26,20,13,86,64,41,30.29,30.08,24,9,30,0.00
2013-2-15,46,34,25,32,24,19,85,70,52,30.32,30.08,20,7,21,0.00
2013-2-16,52,40,30,28,24,20,71,53,38,30.09,29.66,26,12,30,0.00
2013-2-17,47,39,33,29,24,18,74,56,31,29.92,29.57,33,9,40,0.00
2013-2-18,45,33,23,25,20,15,76,59,39,30.05,29.92,15,5,17,0.00
2013-2-19,34,26,18,21,17,12,83,71,57,29.97,29.69,11,4,12,0.00
2013-2-20,36,28,20,22,18,14,83,69,51,29.84,29.72,12,3,13,0.00
2013-2-21,44,32,24,29,21,18,80,66,40,29.90,29.78,13,3,16,0.00
2013-2-22,45,34,25,22,18,14,73,54,36,29.87,29.56,29,11,32,0.00
2013-2-23,42,38,34,31,20,15,77,50,38,29.92,29.49,24,7,27,0.00
2013-2-24,48,36,30,22,17,9,62,46,24,30.10,29.92,19,9,22,0.00
2013-2-25,50,39,30,23,17,13,54,42,26,29.95,29.70,27,13,29,0.00
2013-2-26,49,38,30,21,17,13,66,45,25,30.17,29.81,22,10,26,0.00
2013-2-27,50,35,21,20,16,12,73,48,24,30.19,30.07,21,7,23,0.00
2013-2-28,53,40,30,22,18,14,56,42,26,30.22,30.07,19,7,23,0.00
2013-3-1,64,47,31,30,25,18,63,44,27,30.20,30.06,28,9,36,0.00
2013-3-2,67,51,36,31,28,24,65,43,25,30.16,29.79,24,8,28,0.00
2013-3-3,60,46,37,35,29,25,77,53,37,29.80,29.43,45,3,50,0.00
2013-3-4,35,26,17,17,13,9,74,57,41,30.32,30.16,34,9,37,0.00
2013-3-5,36,25,14,23,15,6,76,67,54,30.29,29.98,12,5,13,0.00
2013-3-6,41,31,19,25,21,12,82,69,52,29.98,29.65,10,3,12,0.00
2013-3-7,56,43,29,30,24,16,78,53,21,29.97,29.71,24,6,28,0.00
2013-3-8,52,41,33,30,26,23,74,58,39,29.95,29.77,15,4,17,0.00
2013-3-9,49,38,28,28,20,15,84,52,25,30.20,29.86,27,8,37,0.00
2013-3-10,61,42,23,24,18,14,74,43,17,30.19,29.90,20,6,23,0.00
2013-3-11,49,42,32,28,22,15,72,46,27,30.25,29.91,35,12,36,0.00
2013-3-12,52,38,24,25,22,18,83,56,28,30.26,29.95,19,7,21,0.00
2013-3-13,70,54,35,29,26,20,59,36,20,30.06,29.95,31,9,38,0.00
2013-3-14,70,56,38,33,28,23,61,37,18,30.10,29.85,22,5,24,0.00
2013-3-15,69,56,39,29,26,19,65,33,16,30.01,29.79,32,11,38,0.00
2013-3-16,55,41,30,31,27,24,84,61,35,30.01,29.57,14,6,15,0.00
2013-3-17,44,37,24,32,19,6,86,51,22,29.87,29.37,40,12,46,0.00
2013-3-18,48,33,20,17,12,6,66,45,19,29.92,29.69,34,8,40,0.00
2013-3-19,44,34,28,26,19,15,82,56,37,30.22,29.89,16,5,17,0.00
2013-3-20,65,42,23,24,19,14,74,46,19,30.15,29.46,25,4,28,0.00
2013-3-21,51,43,32,30,17,8,73,38,20,29.83,29.43,32,12,33,0.00
2013-3-22,36,31,22,27,17,9,80,56,37,30.10,29.80,19,9,21,0.00
2013-3-23,38,28,18,16,8,0,70,45,22,30.21,30.10,22,8,23,0.00
2013-3-24,39,26,14,15,9,4,74,51,26,30.25,30.17,17,4,19,0.00
2013-3-25,53,33,13,16,9,5,72,42,16,30.23,29.95,24,6,26,0.00
2013-3-26,65,45,32,23,15,6,39,30,19,29.95,29.84,14,5,16,0.00
2013-3-27,67,47,23,26,19,10,59,35,17,29.98,29.85,20,4,22,0.00
2013-3-28,73,52,33,29,24,16,58,35,18,30.02,29.91,14,3,17,0.00
2013-3-29,67,53,42,40,31,22,73,46,28,30.07,29.94,26,5,29,0.00
2013-3-30,64,53,44,33,26,18,60,37,21,30.13,30.00,26,10,30,0.00
2013-3-31,64,49,33,28,23,18,59,39,22,30.08,29.93,24,8,30,0.00
2013-4-1,62,46,28,28,22,17,71,42,23,30.11,29.99,17,4,18,0.00
2013-4-2,75,53,28,28,22,16,62,34,15,30.04,29.82,15,4,18,0.00
2013-4-3,70,58,45,32,28,21,54,33,22,30.05,29.83,22,9,26,0.00
2013-4-4,61,50,41,32,30,27,61,47,33,30.04,29.71,17,7,19,0.00
2013-4-5,64,55,45,43,34,29,62,46,31,29.74,29.62,22,8,25,0.00
2013-4-6,68,56,43,37,30,26,57,40,22,29.78,29.66,24,9,28,0.00
2013-4-7,69,52,37,43,36,30,90,58,25,29.74,29.45,24,5,27,0.00
2013-4-8,37,27,23,33,21,17,90,81,73,30.26,29.64,23,9,27,0.00
2013-4-9,42,29,21,21,18,15,85,65,40,30.38,30.26,10,3,11,0.00
2013-4-10,54,36,19,28,22,13,82,58,35,30.26,29.72,16,6,18,0.00
2013-4-11,60,49,38,34,30,23,71,51,28,29.87,29.68,26,12,30,0.00
2013-4-12,57,45,36,35,26,19,74,50,25,30.01,29.63,25,7,28,0.00
2013-4-13,55,42,36,38,29,21,86,63,41,29.64,29.28,33,9,36,0.00
2013-4-14,42,35,26,28,23,19,84,63,47,29.90,29.52,29,12,35,0.00
2013-4-15,41,30,23,26,21,16,84,70,44,30.08,29.89,16,4,18,0.00
2013-4-16,35,30,26,25,22,19,85,75,59,30.24,30.01,16,6,18,0.00
2013-4-17,40,31,23,27,22,16,85,71,40,30.26,30.19,19,3,23,0.00
2013-4-18,56,40,19,31,21,14,87,54,23,30.21,30.00,29,7,33,0.00
2013-4-19,62,51,40,42,29,23,82,46,31,30.01,29.72,25,10,29,0.00
2013-4-20,64,52,45,41,33,25,69,50,24,29.91,29.72,28,10,30,0.00
2013-4-21,49,36,30,34,29,24,93,79,56,30.20,29.91,20,10,21,0.00
2013-4-22,44,33,27,27,23,19,86,68,43,30.39,30.20,16,6,17,0.00
2013-4-23,56,39,21,29,20,11,81,51,18,30.32,30.01,26,9,28,0.00
2013-4-24,64,48,36,33,25,18,82,45,20,30.17,29.83,29,9,30,0.00
2013-4-25,73,58,42,27,24,18,47,28,14,29.92,29.72,30,9,36,0.00
2013-4-26,80,65,49,31,28,23,43,26,14,30.07,29.92,26,9,29,0.00
2013-4-27,80,68,52,33,28,24,43,24,13,30.02,29.74,30,10,35,0.00
2013-4-28,78,63,54,39,32,25,44,32,21,29.93,29.68,25,7,27,0.00
2013-4-29,71,53,44,41,32,16,72,45,20,29.68,29.37,41,11,46,0.00
2013-4-30,52,43,35,26,18,12,55,39,22,30.20,29.68,31,12,35,0.00
2013-5-1,62,44,30,23,20,15,66,42,19,30.53,30.20,15,4,17,0.00
2013-5-2,72,53,32,27,21,17,62,33,15,30.55,30.19,22,8,23,0.00
2013-5-3,73,58,49,42,28,18,81,35,20,30.19,30.05,24,10,25,0.00
2013-5-4,67,53,46,47,40,33,82,63,40,30.22,30.14,20,6,23,0.00
2013-5-5,77,58,39,38,32,27,70,43,21,30.18,29.96,19,4,22,0.00
2013-5-6,84,64,42,36,31,24,53,30,17,29.99,29.81,14,4,16,0.00
2013-5-7,89,68,44,37,32,28,55,29,13,29.91,29.76,24,6,27,0.00
2013-5-8,79,64,50,40,37,33,57,39,23,30.11,29.91,26,8,31,0.00
2013-5-9,84,66,49,42,38,34,61,39,20,30.11,30.01,18,5,22,0.00
2013-5-10,80,62,48,42,35,24,66,38,21,30.35,30.06,32,9,36,0.00
2013-5-11,88,66,42,38,30,21,46,28,16,30.35,30.01,12,4,14,0.00
2013-5-12,94,77,56,41,37,29,44,26,10,30.02,29.86,26,8,29,0.00
2013-5-13,99,81,63,44,38,33,39,24,11,29.95,29.61,27,7,29,0.00
2013-5-14,92,72,58,46,36,24,60,30,14,29.89,29.65,23,7,26,0.00
2013-5-15,82,69,50,45,29,19,50,23,17,29.98,29.75,17,5,19,0.00
2013-5-16,74,62,56,53,47,43,81,59,35,29.83,29.71,22,6,26,0.00
2013-5-17,70,60,54,55,51,48,88,74,53,29.83,29.76,13,3,15,0.00
2013-5-18,62,58,53,54,51,48,91,81,64,29.87,29.81,13,4,14,0.00
2013-5-19,56,54,52,50,48,46,86,82,76,30.01,29.85,29,13,34,0.00
2013-5-20,68,59,53,49,43,27,83,59,24,30.11,29.98,25,12,28,0.00
2013-5-21,78,60,44,44,39,31,86,51,20,30.07,29.84,20,6,22,0.00
2013-5-22,72,57,47,46,44,41,86,64,40,29.92,29.78,26,12,30,0.00
2013-5-23,77,62,54,52,47,43,84,61,36,29.87,29.60,29,12,33,0.00
2013-5-24,81,64,51,51,38,30,84,44,17,29.89,29.65,31,9,37,0.00
2013-5-25,83,67,48,44,39,33,64,37,20,29.86,29.74,24,7,27,0.00
2013-5-26,81,67,58,54,47,39,71,50,38,29.92,29.73,26,6,29,0.00
2013-5-27,76,62,54,50,46,40,82,58,35,29.83,29.69,24,5,26,0.00
2013-5-28,81,62,49,52,46,42,88,61,27,29.71,29.59,20,5,23,0.00
2013-5-29,59,56,54,52,50,48,88,82,72,29.66,29.57,17,6,19,0.00
2013-5-30,57,54,52,50,46,41,87,75,60,29.77,29.55,34,13,41,0.00
2013-5-31,58,53,49,44,42,39,80,66,55,30.18,29.73,39,17,42,0.00
2013-6-1,82,66,51,50,44,38,74,49,23,30.19,29.99,20,6,23,0.00
2013-6-2,84,67,55,52,48,44,81,53,28,29.99,29.58,28,8,32,0.00
2013-6-3,64,54,48,50,41,35,85,62,40,30.01,29.63,38,16,44,0.00
2013-6-4,60,51,45,41,38,35,76,62,47,30.22,29.99,25,7,32,0.00
2013-6-5,80,62,40,45,40,34,91,51,24,30.20,29.95,22,3,24,0.00
2013-6-6,85,69,48,52,46,39,79,47,24,30.00,29.95,17,5,19,0.00
2013-6-7,90,74,54,56,48,38,78,44,18,29.95,29.61,26,6,32,0.00
2013-6-8,84,72,62,47,43,34,58,38,18,29.88,29.68,24,10,30,0.00
2013-6-9,97,76,53,53,47,41,73,40,19,29.88,29.59,22,5,24,0.00
2013-6-10,86,71,56,57,48,43,75,48,24,29.84,29.68,25,7,29,0.00
2013-6-11,85,68,60,61,55,50,84,65,44,29.97,29.71,32,7,36,0.00
2013-6-12,78,66,56,60,56,51,90,71,50,30.04,29.84,12,4,15,0.00
2013-6-13,87,69,56,59,55,47,85,64,32,29.95,29.68,44,9,50,0.00
2013-6-14,70,62,51,48,41,33,81,49,26,29.99,29.86,34,10,39,0.00
2013-6-15,88,69,48,46,40,34,69,39,15,30.02,29.87,14,4,16,0.00
2013-6-16,88,73,56,49,45,39,58,38,22,30.07,29.93,18,6,21,0.00
2013-6-17,88,73,58,54,50,46,66,46,29,30.09,29.91,16,7,19,0.00
2013-6-18,95,78,62,60,52,43,66,43,18,29.91,29.63,22,5,24,0.00
2013-6-19,90,75,63,58,49,32,56,42,27,29.64,29.32,45,11,52,0.00
2013-6-20,84,69,55,36,32,26,38,26,14,29.91,29.59,28,9,34,0.00
2013-6-21,85,66,56,52,45,36,77,49,26,29.98,29.88,19,7,21,0.00
2013-6-22,66,60,54,52,49,45,80,70,54,29.96,29.89,15,4,17,0.00
2013-6-23,88,69,49,50,47,43,88,51,23,29.90,29.66,14,5,16,0.00
2013-6-24,93,76,57,58,51,45,74,44,22,29.66,29.49,24,4,28,0.00
2013-6-25,92,78,67,53,47,40,58,35,18,29.77,29.54,20,7,22,0.00
2013-6-26,88,77,67,59,50,45,72,41,25,30.04,29.76,26,6,28,0.00
2013-6-27,95,79,61,62,56,51,81,50,25,30.17,30.04,17,4,18,0.00
2013-6-28,100,82,63,58,54,49,65,41,21,30.22,30.08,16,4,17,0.00
2013-6-29,96,79,66,62,56,52,83,49,26,30.16,29.99,34,9,40,0.00
2013-6-30,100,82,62,64,59,54,86,51,23,30.10,30.01,20,4,22,0.00
2013-7-1,101,84,66,60,56,53,67,41,22,30.17,30.08,14,4,15,0.00
2013-7-2,106,87,65,60,54,48,66,37,16,30.12,29.89,10,3,13,0.00
2013-7-3,101,86,68,59,52,44,62,35,15,29.89,29.78,28,6,32,0.00
2013-7-4,101,83,72,65,60,53,69,48,23,29.89,29.70,30,7,34,0.00
2013-7-5,91,76,67,59,56,51,69,52,29,29.78,29.68,27,7,31,0.00
2013-7-6,93,76,62,57,54,50,76,50,26,29.95,29.74,24,7,29,0.00
2013-7-7,92,75,63,60,55,47,75,52,30,29.92,29.78,15,5,17,0.00
2013-7-8,98,76,61,62,57,52,82,55,27,30.00,29.73,37,4,42,0.00
2013-7-9,87,75,62,62,56,44,87,55,29,30.11,29.99,17,6,20,0.00
2013-7-10,104,82,60,59,51,42,74,40,13,30.07,29.80,13,5,15,0.00
2013-7-11,103,84,70,58,48,42,55,31,14,29.80,29.67,24,7,28,0.00
2013-7-12,102,84,69,56,50,42,56,32,15,29.86,29.72,22,6,24,0.00
2013-7-13,94,76,62,59,54,50,70,50,25,30.15,29.77,24,8,27,0.00
2013-7-14,94,76,62,55,51,44,65,44,27,30.16,29.96,22,8,23,0.00
2013-7-15,108,86,62,61,51,39,71,37,10,29.96,29.78,18,4,19,0.00
2013-7-16,84,69,63,54,49,42,70,51,26,30.19,29.86,35,8,40,0.00
2013-7-17,90,74,64,61,58,54,80,59,34,30.14,29.95,8,3,12,0.00
2013-7-18,99,82,64,59,47,31,71,36,11,30.05,29.95,24,7,27,0.00
2013-7-19,102,84,64,51,44,30,48,27,10,30.05,29.86,15,5,17,0.00
2013-7-20,101,84,65,53,45,39,47,28,15,29.94,29.75,15,5,16,0.00
2013-7-21,98,82,62,49,43,29,52,28,10,29.83,29.72,23,7,26,0.00
2013-7-22,106,85,68,55,46,28,52,30,9,29.90,29.73,22,7,25,0.00
2013-7-23,99,82,63,54,48,37,56,32,13,30.04,29.89,21,6,24,0.00
2013-7-24,100,84,68,56,50,44,54,34,16,30.05,29.83,22,7,26,0.00
2013-7-25,91,77,64,55,52,49,63,44,25,30.13,29.92,36,9,43,0.00
2013-7-26,93,74,59,54,49,44,61,44,25,30.19,29.97,21,9,26,0.00
2013-7-27,98,78,63,62,50,44,58,40,18,30.00,29.76,34,5,38,0.00
2013-7-28,89,75,64,56,52,48,75,47,29,29.89,29.74,25,6,28,0.00
2013-7-29,83,70,60,55,52,48,80,56,35,30.01,29.79,22,8,25,0.00
2013-7-30,87,71,60,59,53,50,81,56,33,30.16,29.93,16,5,18,0.00
2013-7-31,96,76,57,61,54,46,89,53,19,30.18,29.98,11,3,12,0.00
2013-8-1,85,71,65,57,52,49,70,53,33,30.01,29.65,36,9,41,0.00
2013-8-2,79,69,61,60,57,54,91,68,50,30.01,29.83,19,8,22,0.00
2013-8-3,88,71,60,60,58,54,90,66,38,30.04,29.92,22,6,27,0.00
2013-8-4,91,76,59,59,56,53,84,55,30,30.03,29.88,18,5,19,0.00
2013-8-5,101,78,64,60,54,43,71,47,16,29.96,29.77,31,6,36,0.00
2013-8-6,89,76,61,55,49,42,67,42,21,29.96,29.87,20,6,23,0.00
2013-8-7,95,76,61,52,48,42,64,41,17,29.98,29.83,24,6,27,0.00
2013-8-8,87,74,60,54,51,49,73,48,29,30.01,29.92,20,8,22,0.00
2013-8-9,83,70,63,61,54,48,79,58,36,30.08,30.01,22,8,25,0.00
2013-8-10,92,75,59,60,55,42,89,54,27,30.02,29.90,17,4,19,0.00
2013-8-11,94,74,60,57,49,43,60,43,23,30.01,29.95,11,3,13,0.00
2013-8-16,98,89,78,51,45,39,25,22,18,29.86,29.80,11,5,12,0.00
2013-8-17,98,82,66,52,45,36,40,28,18,29.95,29.80,16,5,17,0.00
2013-8-18,98,83,68,53,48,45,47,31,19,29.98,29.81,17,6,21,0.00
2013-8-19,103,83,63,50,42,28,50,27,8,29.92,29.76,19,5,23,0.00
2013-8-20,102,84,67,44,38,27,35,20,12,29.90,29.77,19,7,22,0.00
2013-8-21,90,79,68,48,43,38,40,28,19,30.01,29.83,20,8,24,0.00
2013-8-22,98,82,64,54,51,45,53,35,22,30.04,29.81,13,4,15,0.00
2013-8-23,105,83,70,54,50,40,53,36,14,29.83,29.68,34,7,38,0.00
2013-8-24,99,80,71,56,50,41,58,38,18,29.87,29.74,24,5,27,0.00
2013-8-25,101,82,67,52,46,39,51,31,14,29.93,29.80,18,4,21,0.00
2013-8-26,102,87,74,50,46,42,34,25,14,29.90,29.80,19,6,22,0.00
2013-8-27,98,84,69,51,48,43,44,30,17,29.97,29.84,12,4,15,0.00
2013-8-28,102,82,65,58,51,47,58,37,18,29.94,29.78,28,5,32,0.00
2013-8-29,100,78,61,58,52,46,68,45,18,30.04,29.92,20,4,23,0.00
2013-8-30,102,82,63,57,50,32,69,38,9,29.99,29.81,25,6,28,0.00
2013-8-31,89,77,64,50,44,38,48,31,21,30.04,29.86,25,6,28,0.00
2013-9-1,93,76,57,47,42,36,49,32,19,30.02,29.84,11,4,12,0.00
2013-9-2,96,77,59,58,46,38,54,35,18,29.89,29.80,27,4,29,0.00
2013-9-3,100,83,65,56,51,46,59,36,20,29.93,29.84,15,5,18,0.00
2013-9-4,101,83,74,58,55,46,50,39,22,30.02,29.92,24,8,28,0.00
2013-9-5,99,80,63,62,56,51,71,46,23,30.00,29.83,20,5,22,0.00
2013-9-6,94,78,64,62,58,55,74,53,29,29.98,29.86,25,5,32,0.00
2013-9-7,93,78,57,64,57,32,100,53,27,30.03,29.86,74,8,137,0.00
2013-9-8,82,54,62,64,46,0,100,58,50,29.98,29.71,80,9,184,0.00
2013-9-9,80,69,60,55,49,45,78,51,31,29.94,29.81,19,7,23,0.00
2013-9-10,87,70,54,54,47,26,80,48,11,30.03,29.93,11,3,11,0.00
2013-9-11,84,71,55,51,47,42,71,45,24,30.20,30.01,18,5,20,0.00
2013-9-12,86,72,59,52,48,43,60,44,24,30.20,29.95,19,5,21,0.00
2013-9-13,83,71,63,60,54,49,91,58,32,29.95,29.70,19,6,21,0.00
2013-9-14,70,66,63,63,58,50,89,79,63,30.02,29.73,20,7,27,0.00
2013-9-15,79,67,60,60,54,49,77,64,47,30.08,29.89,16,7,17,0.00
2013-9-16,84,72,59,59,53,48,80,56,30,29.89,29.67,20,8,22,0.00
2013-9-17,77,68,62,57,54,49,82,61,43,29.74,29.54,17,5,20,0.00
2013-9-18,71,62,55,56,45,40,87,56,42,29.86,29.53,28,10,31,0.00
2013-9-19,68,57,50,46,39,36,68,53,32,30.07,29.86,19,6,22,0.00
2013-9-20,79,61,44,48,41,36,80,53,24,30.01,29.67,24,4,24,0.00
2013-9-21,86,66,46,45,37,26,76,41,11,29.68,29.42,22,6,26,0.00
2013-9-22,80,69,58,46,41,34,58,39,24,29.52,29.40,23,6,27,0.00
2013-9-23,73,64,55,45,37,30,60,40,20,29.80,29.51,33,11,40,0.00
2013-9-24,80,62,45,43,38,33,66,44,25,29.84,29.51,35,4,40,0.00
2013-9-25,57,53,49,48,43,37,90,73,49,29.59,29.51,18,4,21,0.00
2013-9-26,53,48,41,46,38,35,93,71,55,29.89,29.58,26,7,34,0.00
2013-9-27,61,50,44,40,37,31,83,64,38,29.89,29.75,17,6,19,0.00
2013-9-28,69,55,43,42,38,35,77,56,35,29.80,29.68,22,11,28,0.00
2013-9-29,75,60,48,41,39,37,66,47,27,29.68,29.44,33,12,36,0.00
2013-9-30,75,56,46,46,36,22,79,51,24,29.72,29.34,48,13,52,0.00
2013-10-1,72,57,43,37,32,26,61,40,25,29.84,29.71,30,5,34,0.00
2013-10-2,63,54,46,41,35,28,82,52,29,29.98,29.83,24,7,26,0.00
2013-10-3,47,40,36,43,37,33,96,92,82,30.20,29.80,27,15,30,0.00
2013-10-4,47,40,34,34,31,27,95,74,53,30.35,30.19,21,7,23,0.00
2013-10-5,60,44,32,38,31,25,85,62,34,30.23,30.07,20,10,23,0.00
2013-10-6,67,54,44,45,36,30,66,52,38,30.10,29.89,21,12,24,0.00
2013-10-7,71,61,52,41,37,33,55,43,29,29.90,29.55,21,10,24,0.00
2013-10-8,66,55,44,40,36,32,74,50,32,29.84,29.55,27,5,33,0.00
2013-10-9,58,49,39,40,36,32,81,64,48,29.95,29.74,14,4,15,0.00
2013-10-10,61,49,38,46,40,33,91,74,50,29.74,29.55,13,2,14,0.00
2013-10-11,56,47,38,40,35,30,80,64,42,29.93,29.65,28,9,31,0.00
2013-10-12,54,43,31,38,33,27,90,71,48,30.01,29.92,16,5,17,0.00
2013-10-13,47,42,37,41,34,27,92,75,57,30.05,29.99,20,6,22,0.00
2013-10-14,48,43,38,39,34,28,90,74,51,30.28,30.04,21,10,27,0.00
2013-10-15,54,44,36,39,33,28,86,67,46,30.28,29.98,19,7,21,0.00
2013-10-16,57,44,38,36,31,26,82,62,32,30.08,29.87,32,12,43,0.00
2013-10-17,50,43,39,39,35,31,90,76,58,30.08,29.98,25,6,27,0.00
2013-10-18,58,46,38,33,30,26,78,55,32,30.10,29.86,21,9,24,0.00
2013-10-19,62,52,42,36,31,28,62,47,29,29.86,29.72,24,11,29,0.00
2013-10-20,58,51,46,37,34,30,67,53,38,29.96,29.85,27,9,29,0.00
2013-10-21,66,55,46,38,35,33,71,48,32,29.99,29.90,21,9,26,0.00
2013-10-22,69,54,41,43,37,32,77,55,35,30.02,29.91,14,6,17,0.00
2013-10-23,62,48,38,41,37,31,83,68,46,30.14,29.98,16,4,18,0.00
2013-10-24,59,46,35,42,37,29,90,74,53,30.16,29.98,7,2,8,0.00
2013-10-25,70,56,41,40,37,32,83,51,27,30.16,29.95,17,8,19,0.00
2013-10-26,69,52,35,40,34,27,81,54,30,30.16,29.84,19,7,22,0.00
2013-10-27,62,49,37,38,31,26,74,53,25,30.01,29.68,29,9,33,0.00
2013-10-28,37,30,26,30,26,21,93,87,74,30.09,30.01,29,15,33,0.00
2013-10-29,43,33,28,30,26,23,92,76,53,30.02,29.76,10,2,11,0.00
2013-10-30,53,38,23,38,28,19,100,70,49,29.77,29.62,16,5,18,0.00
2013-10-31,57,50,45,36,31,28,61,49,42,29.74,29.57,36,13,40,0.00
2013-11-1,57,50,37,30,28,26,67,45,32,30.02,29.95,16,6,18,0.00
2013-11-2,61,45,32,35,30,25,81,58,35,29.98,29.39,16,3,19,0.00
2013-11-3,49,43,34,36,26,18,77,53,29,29.77,29.44,25,10,29,0.00
2013-11-4,42,33,25,28,24,20,90,73,55,29.98,29.77,12,4,13,0.00
2013-11-5,43,35,27,30,25,20,92,70,46,30.00,29.86,16,6,18,0.00
2013-11-6,51,42,34,30,24,20,67,52,32,30.19,29.90,29,8,37,0.00
2013-11-7,54,44,34,33,28,23,72,55,42,30.18,29.49,22,4,24,0.00
2013-11-8,54,48,41,36,27,23,75,45,31,29.90,29.46,31,12,35,0.00
2013-11-9,52,43,36,27,24,21,67,49,35,30.08,29.90,18,4,21,0.00
2013-11-10,50,38,30,33,28,24,84,68,47,30.19,29.95,18,6,20,0.00
2013-11-11,39,28,21,26,21,16,88,78,60,30.41,30.19,10,4,12,0.00
2013-11-12,60,46,21,39,30,17,96,59,32,30.38,30.04,27,11,29,0.00
2013-11-13,65,54,44,39,31,23,60,43,32,30.04,29.88,22,8,27,0.00
2013-11-14,51,42,30,32,26,22,73,55,43,29.98,29.56,19,4,20,0.00
2013-11-15,52,40,28,25,22,20,82,52,29,29.57,29.19,32,7,38,0.00
2013-11-16,51,42,37,31,26,23,77,55,39,29.34,29.07,27,6,33,0.00
2013-11-17,48,39,31,26,21,14,68,49,31,29.82,29.33,26,8,35,0.00
2013-11-18,60,44,27,25,22,18,74,45,24,29.81,29.57,23,6,26,0.00
2013-11-19,64,52,45,31,26,21,51,37,29,29.57,29.40,18,8,20,0.00
2013-11-20,45,19,10,28,11,2,80,73,53,30.31,29.53,20,8,22,0.00
2013-11-21,26,14,-2,14,5,-10,76,69,59,30.44,30.29,24,7,27,0.00
2013-11-22,36,25,19,20,13,8,65,58,51,30.49,30.34,22,8,25,0.00
2013-11-23,40,29,16,20,13,7,70,52,41,30.49,30.02,22,9,24,0.00
2013-11-24,49,38,28,26,20,14,68,51,39,30.04,29.87,19,8,22,0.00
2013-11-25,45,36,29,27,24,21,76,63,47,30.24,30.04,15,3,16,0.00
2013-11-26,51,39,28,29,25,21,79,60,41,30.26,29.89,21,7,25,0.00
2013-11-27,56,44,31,30,25,22,72,50,32,30.07,29.87,28,8,34,0.00
2013-11-28,44,33,23,28,23,17,83,69,54,30.07,29.86,14,3,15,0.00
2013-11-29,59,44,36,32,27,23,67,51,31,29.97,29.84,16,6,17,0.00
2013-11-30,55,44,38,33,29,25,67,56,38,30.02,29.92,15,4,18,0.00
2013-12-1,50,45,37,33,30,27,75,58,48,29.92,29.49,18,6,19,0.00
2013-12-2,49,39,25,38,33,20,93,82,53,29.68,29.36,17,5,19,0.00
2013-12-3,25,15,10,19,8,2,84,75,68,30.05,29.65,18,8,19,0.00
2013-12-4,11,7,-1,2,-3,-10,76,66,56,30.17,30.04,15,5,17,0.00
2013-12-5,5,-4,-12,-4,-13,-19,78,68,58,30.27,30.10,16,3,17,0.00
2013-12-6,0,-8,-14,-10,-16,-23,74,68,56,30.41,30.27,7,2,8,0.00
2013-12-7,-1,-11,-17,-13,-19,-25,74,67,54,30.38,29.99,67,3,147,0.00
2013-12-8,12,2,-14,2,-7,-22,73,66,57,30.04,29.87,27,10,30,0.00
2013-12-9,27,15,2,16,5,-6,75,67,58,29.99,29.77,34,13,39,0.00
2013-12-10,30,23,9,21,15,3,89,72,59,30.20,29.77,28,9,30,0.00
2013-12-11,29,22,7,17,11,2,90,65,49,30.19,30.02,19,9,22,0.00
2013-12-12,43,34,27,25,18,14,63,52,44,30.04,29.77,22,10,24,0.00
2013-12-13,41,36,28,29,23,18,73,60,51,30.05,29.75,21,7,23,0.00
2013-12-14,46,37,24,27,23,17,78,58,39,30.05,29.87,36,12,42,0.00
2013-12-15,51,44,33,26,22,18,67,43,27,29.89,29.68,44,12,55,0.00
2013-12-16,53,43,33,25,21,17,72,43,26,30.14,29.79,31,8,38,0.00
2013-12-17,48,39,26,26,23,21,88,56,34,30.14,29.65,23,8,25,0.00
2013-12-18,43,38,28,27,25,20,95,63,42,29.69,29.57,21,8,23,0.00
2013-12-19,28,13,1,24,5,-6,90,73,57,30.06,29.69,29,7,34,0.00
2013-12-20,29,22,13,17,12,5,73,65,57,29.81,29.39,21,9,22,0.00
2013-12-21,37,27,19,25,19,13,84,72,62,29.87,29.39,14,3,15,0.00
2013-12-22,20,13,0,13,6,-6,85,77,61,30.21,29.86,16,5,17,0.00
2013-12-23,39,22,-1,32,13,-8,91,72,58,30.20,29.65,36,9,38,0.00
2013-12-24,40,36,33,33,21,14,87,56,40,30.20,29.75,37,13,43,0.00
2013-12-25,42,32,21,21,16,11,67,53,37,30.23,29.95,24,11,28,0.00
2013-12-26,48,37,28,28,22,16,66,54,35,30.06,29.92,23,9,32,0.00
2013-12-27,49,43,34,27,24,20,65,48,36,29.99,29.69,21,10,23,0.00
2013-12-28,47,27,16,24,13,6,72,55,34,30.28,29.67,36,9,42,0.00
2013-12-29,40,29,19,20,15,10,78,58,37,30.23,29.72,30,9,35,0.00
2013-12-30,41,37,32,24,21,19,64,53,47,30.02,29.72,24,8,28,0.00
2013-12-31,47,39,33,32,27,21,95,64,44,29.92,29.70,26,8,32,0.00
2014-1-1,40,31,24,30,25,18,95,82,61,30.19,29.92,22,6,24,0.00
2014-1-2,38,31,18,24,20,13,88,67,54,30.08,29.61,21,10,23,0.00